Hourly Data Report for October 06, 2016

All times are specified in Local Standard Time (LST). Add 1 hour to adjust for Daylight Saving Time where and when it is observed.

EUREKA CLIMATE
NUNAVUT

79°59'21.000" N
85°56'02.000" W
10.00 m
2401199
71613
NEK

Download Data

Hourly Data (October 2016)
Hourly Data Report for October 6, 2016
Temp Definition
°C
Dew Point Temp Definition
°C
Rel Hum Definition
%
Wind Dir Definition
10's deg

Wind Spd Definition
km/h
Visibility Definition
km
Stn Press Definition
kPa
Hmdx Definition


Wind Chill Definition


Weather Definition


TIME
00:00 -4.2 -5.4 92 11 22   100.57   -11 LegendNANA
01:00 -4.4 -5.5 92 13 24   100.54   -11 LegendNANA
02:00 -4.4 -5.6 91 13 23   100.51   -11 LegendNANA
03:00 -3.9 -5.2 91 14 31   100.43   -12 LegendNANA
04:00 -4.1 -5.4 91 12 21   100.42   -11 LegendNANA
05:00 -4.3 -5.7 90 14 24   100.36   -11 LegendNANA
06:00 -5.1 -6.3 91 12 15   100.35   -11 LegendNANA
07:00 -4.7 -5.9 91 9 9   100.31   -9 LegendNANA
08:00 -4.1 -5.4 90 12 17   100.26   -10 LegendNANA
09:00 -4.7 -5.9 91 12 21   100.19   -11 LegendNANA
10:00 -5.2 -6.4 91 12 18   100.19   -11 LegendNANA
11:00 -5.1 -6.4 90 12 17   100.17   -11 LegendNANA
12:00 -4.4 -5.8 90 12 13   100.18   -9 LegendNANA
13:00 -4.7 -5.6 93 12 15   100.18   -10 LegendNANA
14:00 -5.6 -6.7 92 10 7   100.17   -9 LegendNANA
15:00 -5.1 -5.9 94 6 5   100.19   -7 LegendNANA
16:00 -4.9 -5.5 96 35 10   100.20   -9 LegendNANA
17:00 -5.0 -5.3 98 29 14   100.24   -10 LegendNANA
18:00 -4.5 -4.8 98 33 13   100.28   -10 LegendNANA
19:00 -4.9 -5.9 93 36 7   100.30   -8 LegendNANA
20:00 -6.1 -8.7 82 34 23   100.34   -13 LegendNANA
21:00 -6.6 -9.9 77 33 16   100.38   -13 LegendNANA
22:00 -8.3 -11.8 76 3 11   100.40   -14 LegendNANA
23:00 -11.1 -12.6 89 12 7   100.42   -15 LegendNANA

Notes on Data Quality.

Legend

  • E = Estimated
  • M = Missing
  • NA = Not Available
  • ‡ = Partner data that is not subject to review by the National Climate Archives
Date modified: